Weather Roundup
Issued by NWS Springfield, MO

Home | Current Version | Previous Version | Text Only | Print | Product List | Glossary On
Versions: 1 2 3 4 5 6 7 8 9 10 11 12 13 14 15 16 17 18 19 20 21 22 23 24 25 26 27 28 29 30 31 32 33 34 35 36 37 38 39 40 41 42 43 44 45 46 47 48 49 50
000
NZUS99 KSGF 191457
HRRSGF

HOURLY WEATHER
NATIONAL WEATHER SERVICE SPRINGFIELD MO
900 AM CST SUN NOV 19 2017

......SGF CWA......

CITY           SKY/WX    TMP DP  RH WIND       PRES   REMARKS
SPRINGFIELD    SUNNY     36  29  75 NW8       30.28R WCI  30
JOPLIN         SUNNY     37  30  75 CALM      30.33R
WEST PLAINS    SUNNY     38  20  48 NW13      30.25R WCI  30
ROLLA          SUNNY     32  22  66 NW10      30.25R WCI  24
BRANSON        SUNNY     37  23  56 NW8       30.30R WCI  31

......SURROUNDING SGF CWA......

CITY           SKY/WX    TMP DP  RH WIND       PRES   REMARKS
CHANUTE        SUNNY     38  31  76 CALM      30.33R
PARSONS        SUNNY     39  32  76 CALM      30.34R
COFFEYVILLE    SUNNY     38  31  76 CALM      30.34R
EMPORIA        SUNNY     37  30  75 S5        30.29R WCI  33
HARRISON AR    SUNNY     40  27  59 NW7       30.29R

......KANSAS AND MISSOURI......

CITY           SKY/WX    TMP DP  RH WIND       PRES   REMARKS
KANSAS CTY INT SUNNY     33  25  72 SW7       30.28R WCI  27
SEDALIA        SUNNY     34  22  61 NW12      30.30R WCI  25
ST JOSEPH      SUNNY     31  24  75 S5        30.29R WCI  26
ST LOUIS       SUNNY     34  18  52 NW16      30.21R WCI  24
WICHITA        MOSUNNY   35  29  78 SW3       30.31R
TOPEKA         SUNNY     35  31  85 CALM      30.29R
OLATHE         SUNNY     35  24  64 CALM      30.29R

......TENNESSEE......

CITY           SKY/WX    TMP DP  RH WIND       PRES   REMARKS
MEMPHIS        NOT AVBL
NASHVILLE      CLOUDY    41  28  60 NW10G20   30.15R

......ARKANSAS.......

CITY           SKY/WX    TMP DP  RH WIND       PRES   REMARKS
FAYETTEVILLE   SUNNY     40  33  76 NW7       30.32R
FT SMITH       SUNNY     45  35  68 SW5       30.34R
LITTLE ROCK    SUNNY     47  29  49 NW13G22   30.31R

......OKLAHOMA.......

CITY           SKY/WX    TMP DP  RH WIND       PRES   REMARKS
TULSA          SUNNY     43  31  62 CALM      30.35R
PONCA CITY     SUNNY     36  27  69 NE3       30.34R
MCALESTER      MOSUNNY   46  34  62 CALM      30.36R
OKLAHOMA CITY  MOSUNNY   40  31  70 S3        30.35R

......IOWA............

CITY           SKY/WX    TMP DP  RH WIND       PRES   REMARKS
DES MOINES     NOT AVBL
QUAD CITIES    SUNNY     27  13  55 W13G21    30.14R WCI  16

......ILLINOIS........

CITY           SKY/WX    TMP DP  RH WIND       PRES   REMARKS
QUINCY         NOT AVBL
CHICAGO        MOSUNNY   31  19  61 W16       30.01R WCI  20




USA.gov is the U.S. government's official web portal to all federal, state and local government web resources and services.